Regional Weather Roundup
Issued by NWS

Home | Current Version | Previous Version | Text Only | Print | Product List | Glossary On
Versions: 1 2 3 4 5 6 7 8 9 10 11 12 13 14 15 16 17 18 19 20 21 22 23 24 25 26 27 28 29 30 31 32 33 34 35 36 37 38 39 40 41 42 43 44 45 46 47 48 49 50
000
ASUS43 KOAX 210410
RWRNE

WEATHER ROUNDUP FOR NEBRASKA
NATIONAL WEATHER SERVICE OMAHA NE
1100 PM CDT SUN AUG 20 2017

NOTES: SATELLITE DATA IS BEING USED TO AUGMENT CLOUD COVER ABOVE
       12000 FEET.
       "FAIR" INDICATES FEW OR NO CLOUDS BELOW 12,000 FEET WITH NO
       SIGNIFICANT WEATHER AND/OR OBSTRUCTIONS TO VISIBILITY.


NEZ001>004-019>022-054>056-210500-
NEBRASKA PANHANDLE

CITY           SKY/WX    TMP DP  RH WIND       PRES   REMARKS
SCOTTSBLUFF    PTCLDY    73  63  70 E12       30.02R
ALLIANCE       CLOUDY    63  59  87 E6        30.04R
CHADRON        CLOUDY    72  57  59 E9        30.00S
GORDON         FAIR      64  56  75 E5        30.05R
KIMBALL        CLOUDY    66  60  81 SE8       30.10S
SIDNEY         CLOUDY    67  62  84 SE10      30.07S
$$

NEZ057>060-069>072-079>082-210500-
SOUTHWEST NEBRASKA

CITY           SKY/WX    TMP DP  RH WIND       PRES   REMARKS
NORTH PLATTE   MOCLDY    74  71  91 E7        29.98S
IMPERIAL       PTCLDY    71  66  84 E5        30.00R
LEXINGTON      CLOUDY    76  73  91 NE7       29.96S
MCCOOK         CLOUDY    76  72  87 NE6       29.96R
OGALLALA       PTCLDY    72  68  87 E6        30.01R
$$

NEZ005>010-023>029-035>040-094-210500-
NORTH CENTRAL NEBRASKA

CITY           SKY/WX    TMP DP  RH WIND       PRES   REMARKS
VALENTINE      CLOUDY    72  61  68 NE10      30.03R
AINSWORTH      CLEAR     68  68  99 NE5       30.01F
BROKEN BOW     CLEAR     74  70  87 E8        29.99R
O`NEILL        CLEAR     69  69  99 E7        30.00S
ORD            PTCLDY    73  68  84 E6        29.97S
THEDFORD       PTCLDY    71  69  93 E9        30.02S
$$

NEZ041-046>049-061>064-073>077-083>087-210500-
SOUTH CENTRAL NEBRASKA

CITY           SKY/WX    TMP DP  RH WIND       PRES   REMARKS
GRAND ISLAND   PTCLDY    74  74 100 NE6       29.95R
AURORA         PTCLDY    74  74  98 SE6       29.94S
HASTINGS       PTCLDY    80  71  74 S7        29.94S
HEBRON         PTCLDY    80  74  81 SE8       29.94R
HOLDREGE       CLEAR     75  68  77 SE7       29.94R
KEARNEY        PTCLDY    76  74  93 NE6       29.95R
YORK           CLOUDY    75  73  94 SE8       29.94S
$$

NEZ011>018-030>034-042>045-210500-
NORTHEAST NEBRASKA

CITY           SKY/WX    TMP DP  RH WIND       PRES   REMARKS
NORFOLK        CLOUDY    76  70  82 E6        29.98S
ALBION         PTCLDY    74  71  89 NE9       29.98S
BLAIR          CLEAR     72  68  88 E7        29.98S
COLUMBUS       CLEAR     73  70  90 E7        29.97R
FREMONT        CLEAR     73  68  82 E9        29.98R
TEKAMAH        CLOUDY    72  69  90 CALM      29.98R
WAYNE          CLOUDY    74  72  91 E7        29.99R
$$

NEZ050>053-065>068-078-088>093-210500-
SOUTHEAST NEBRASKA

CITY           SKY/WX    TMP DP  RH WIND       PRES   REMARKS
LINCOLN        CLOUDY    78  71  79 SE8       29.95R
OMAHA EPPLEY   PTCLDY    75  66  73 SE8       29.99R
BEATRICE       CLEAR     81  74  79 SE13      29.96R
FALLS CITY     PTCLDY    76  73  91 SE5       29.98R
NEBRASKA CITY  PTCLDY    75  74  99 SE7       29.99R
PLATTSMOUTH    PTCLDY    72  67  87 E9        29.99R
$$

NEZ044-045-051>053-067-210500-
OMAHA AREA

CITY           SKY/WX    TMP DP  RH WIND       PRES   REMARKS
OMAHA EPPLEY   PTCLDY    75  66  73 SE8       29.99R
BLAIR          CLEAR     72  68  88 E7        29.98S
FREMONT        CLEAR     73  68  82 E9        29.98R
MILLARD        CLEAR     76  69  81 SE6       29.98R
OFFUTT AFB     PTCLDY    73  67  81 E7        29.98R
PLATTSMOUTH    PTCLDY    72  67  87 E9        29.99R
WAHOO          FAIR      73  69  88 E7        29.97R
$$




USA.gov is the U.S. government's official web portal to all federal, state and local government web resources and services.